Regional Weather Roundup
Issued by NWS

Home | Current Version | Previous Version | Graphics & Text | Print | Product List | Glossary On
Versions: 1 2 3 4 5 6 7 8 9 10 11 12 13 14 15 16 17 18 19 20 21 22 23 24 25 26 27 28 29 30 31 32 33 34 35 36 37 38 39 40 41 42 43 44 45 46 47 48 49 50
000
ASUS43 KMPX 251310
RWRMN
WEATHER ROUNDUP FOR MINNESOTA
NATIONAL WEATHER SERVICE TWIN CITIES/CHANHASSEN MN
800 AM CDT WED MAY 25 2016


NOTE: "FAIR" INDICATES FEW OR NO CLOUDS BELOW 12,000 FEET WITH NO
SIGNIFICANT WEATHER AND/OR OBSTRUCTIONS TO VISIBILITY. N/A MEANS
CURRENT SKY AND/OR WEATHER CONDITIONS ARE NOT AVAILABLE.

MNZ060>063-068>070-251400-
   Twin Cities Metro

CITY           SKY/WX    TMP DP  RH WIND       PRES   REMARKS
TWIN CITIES    CLOUDY    70  58  65 SE15      29.89S
ST PAUL        PTSUNNY   69  59  70 SE9       29.91R
CRYSTAL        CLOUDY    69  57  65 E6        29.88S
BLAINE         PTSUNNY   66  59  77 E6        29.90
EDEN PRAIRIE   CLOUDY    70  59  68 E9        29.88S
SOUTH ST PAUL  CLOUDY    69  58  67 SE5       29.91S
LAKE ELMO      FAIR      68  59  73 E5        29.93R
$$
MNZ001>005-007-008-013>017-022>024-027-028-251400-
   Northwest Minnesota

CITY           SKY/WX    TMP DP  RH WIND       PRES   REMARKS
BEMIDJI        CLOUDY    58  56  92 E6        29.92S
HALLOCK        CLOUDY    63  54  72 E10       29.84F
ROSEAU         CLOUDY    61  54  77 E6        29.89F
WARROAD        MOSUNNY   57  54  88 E9        29.92S
THIEF RVR FALL MOSUNNY   63  52  67 E14       29.88R
CROOKSTON      CLOUDY    64  54  68 E12G18    29.83S
FOSSTON        CLOUDY    59  54  82 E7        29.87S
DETROIT LAKES  CLOUDY    61  54  77 SE13      29.88S
MOORHEAD       CLOUDY    64  55  72 SE13G18   29.81S
PARK RAPIDS    CLOUDY    60  55  83 E8        29.90S
MAHNOMEN       FAIR      62  55  77 SE13G18   29.85S
$$
MNZ006-009>011-018-025>026-251400-
   North Central Minnesota

CITY           SKY/WX    TMP DP  RH WIND       PRES   REMARKS
BAUDETTE       PTSUNNY   57  53  86 E8        29.92F
FLAG ISLAND    CLOUDY    59  55  88 E8        29.92F
INTL FALLS     CLOUDY    55  54  96 E7        29.97S FOG
WASKISH        CLOUDY    57  55  94 E9        29.93S
BIG FORK       CLOUDY    59  54  82 E6        29.96S
LONGVILLE      CLOUDY    57  55  94 E3        29.94R
CRANE LAKE     CLOUDY    54  52  94 CALM      30.02S
ORR            CLOUDY    55  48  76 CALM      29.97S
COOK           CLOUDY    55  52  88 E5        30.00S
WALKER         CLOUDY    57  55  93 E7        29.92S
$$
MNZ012-019>021-037-251400-
   Northeast Minnesota

CITY           SKY/WX    TMP DP  RH WIND       PRES   REMARKS
DULUTH         DRZL/FOG  50  49  96 E14       30.02R VSB 1/4
ELY            CLOUDY    55  50  82 E9        30.02S
HIBBING        CLOUDY    54  51  90 E8        29.99S
EVELETH        CLOUDY    54  50  87 E7        30.01S
DULUTH HARBOR  CLOUDY    46  45  93 NE16      30.04R FOG
TWO HARBORS    HAZE      54  48  82 E12       30.02R VSB 1
SILVER BAY     FOG       52  48  87 NE7       30.03S VSB 1
GRAND MARAIS     N/A     44  41  89 NE9       30.08R
G MARAIS ARPRT FOG       50  48  93 E8        30.07R VSB 1/2
$$
MNZ029>031-032-039>041-046>048-054>057-064-251400-
   West Central Minnesota

CITY           SKY/WX    TMP DP  RH WIND       PRES   REMARKS
FERGUS FALLS   CLOUDY    63  55  77 E10       29.79F
WHEATON        CLOUDY    66  61  82 SE13      29.80F
MORRIS         CLOUDY    64  59  82 E10       29.81F
ALEXANDRIA     CLOUDY    60  55  83 E12       29.87S
ELBOW LAKE     FAIR      63  57  81 SE15      29.83F
WADENA         CLOUDY    57  55  94 E7        29.88F
GLENWOOD       CLOUDY    61  57  88 E10G16    29.86F
APPLETON       LGT RAIN  66  61  82 SE10      29.82S
BENSON         PTSUNNY   66  57  72 SE7       29.83
ORTONVILLE     LGT RAIN  64  61  88 SE12G21   29.79F
MADISON        HVY RAIN  63  55  77 SE13      29.78F
WILLMAR        FAIR      66  61  82 SE15      29.87R
$$
MNZ033>034-036-042>043-049>051-058-059-251400-
   Central Minnesota

CITY           SKY/WX    TMP DP  RH WIND       PRES   REMARKS
ST CLOUD       CLOUDY    60  57  89 E9        29.90R
SAUK CENTRE    FAIR      59  56  89 E12       29.88R
PAYNESVILLE    CLOUDY    63  57  81 E7        29.88S
AITKIN         CLOUDY    55  52  88 E7        29.94R HAZE
PINE RIVER     CLOUDY    55  55 100 E10G16    29.96S
BRAINERD       CLOUDY    56  54  93 E7        29.93S
STAPLES        CLOUDY    57  55  94 E6        29.90F
LONG PRAIRIE   FAIR      59  54  82 E7        29.89S
LITTLE FALLS   CLOUDY    59  55  88 E6        29.89F
LITCHFIELD     CLOUDY    66  63  88 E8        29.88S
BUFFALO        CLOUDY    64  56  77 E7        29.89F
MAPLE LAKE     CLOUDY    64  60  84 E7        29.89F
HUTCHINSON     CLOUDY    66  62  86 E7        29.88R
$$
MNZ037-044-045-052-053-251400-
   East Central Minnesota

CITY           SKY/WX    TMP DP  RH WIND       PRES   REMARKS
PRINCETON        N/A     63  59  88 E6        29.92S
MORA           CLOUDY    54  54 100 E6        29.96S
CAMBRIDGE      CLOUDY    63  55  77 NE5       29.91R
RUSH CITY      CLOUDY    59  58  96 NE6       29.94S
MOOSE LAKE     CLOUDY    48  46  93 E8        29.98R FOG
HINCKLEY       CLOUDY    54  54 100 NE7       29.96S
CLOQUET        FOG       48  46  93 E15       30.00R VSB 1/4
MCGREGOR       CLOUDY    52  52 100 E8        29.98R
$$
MNZ071>073-080-081-089-090-097-098-251400-
   Southwest Minnesota

CITY           SKY/WX    TMP DP  RH WIND       PRES   REMARKS
MONTEVIDEO     TSTM      64  63  94 S9G16     29.86R
GRANITE FALLS  TSTM      65  62  90 SE13G24   29.87R
CANBY          CLOUDY    65  58  78 SE18G24   29.77F
MARSHALL       LGT RAIN  64  62  93 SE14      29.81F
REDWOOD FALLS  TSTM      63  59  87 SW22G31   29.87R VSB 1
OLIVIA         CLOUDY    63  55  77 S13       29.87R
PIPESTONE      CLOUDY    63  61  94 S10       29.81S
WINDOM         LGT RAIN  64  63  94 S7        29.88S
WORTHINGTON    LGT RAIN  65  59  81 SE10      29.84F
JACKSON        LGT RAIN  64  61  88 SE8       29.89S
TRACY          CLOUDY    64  61  88 SE10      29.84F
SLAYTON        CLOUDY    63  62  97 SE17      29.83F
$$
MNZ065>067-074>077-082>085-091>093-251400-
   South Central Minnesota

CITY           SKY/WX    TMP DP  RH WIND       PRES   REMARKS
MANKATO        CLOUDY    68  57  68 S16       29.89R
NEW ULM        CLOUDY    66  61  82 S5        29.88R
ST JAMES       RAIN      61  57  88 SW18G28   29.88R
FAIRMONT       CLOUDY    64  57  77 S12       29.89S
GLENCOE        CLOUDY    64  63  94 E9        29.86F
FARIBAULT      CLOUDY    68  61  77 E8        29.90R
OWATONNA       PTSUNNY   70  61  73 SE14      29.92R
WASECA         CLOUDY    68  59  73 SE13      29.92R
ALBERT LEA     TSTM      64  63  94 S7        29.92F
$$
MNZ078>079-086>088-094>096-251400-
   Southeast Minnesota

CITY           SKY/WX    TMP DP  RH WIND       PRES   REMARKS
ROCHESTER      CLOUDY    66  62  87 SE14      29.94R
RED WING       PTSUNNY  N/A N/A N/A E3        29.91R
STANTON        CLOUDY    69  59  71 SE7       29.90R
DODGE CENTER   PTSUNNY   66  61  82 S12       29.94R
WINONA         CLOUDY    66  61  82 SE6       29.94R
AUSTIN         CLOUDY    64  61  88 S8        29.93S
PRESTON        PTSUNNY   65  61  85 S5        29.95R
$$
ABBREVIATIONS USED IN REMARKS
   TC - TEMPERATURES IN CELSIUS
  WCI - WIND CHILL INDEX
   HX - HEAT INDEX
  VSB - VISIBILITY
$$




USA.gov is the U.S. government's official web portal to all federal, state and local government web resources and services.